Find Starlink 33693

NORAD ID: 63409 Int'l Des: 2025-065 Owner: SPXS Country: US Constellation: starlink operational
LEOCIRCULAR

实时位置

正在加载3D地球...

关于 Starlink 33693

正在加载描述...

即将过境

Passes for default location (London). Set your location on the main map for personalized predictions.

高度历史

Loading altitude history...

两行轨道根数

1 63409U 25065L 26123.37983792 .00025350 00000-0 92761-3 0 9995
2 63409 43.0001 158.2487 0001491 275.7760 84.2921 15.27577686 61205
Epoch: May 3, 2026 • Age: 16 hours

当前状态

高度 484.4 km
速度 7.62 km/s
星下点 -11.31°S, 90.71°W
发射日期 Mar 31, 2025
运行时间 1 years
类型 internet

技术详情

分类 Payload
质量 575.00 kg
干质量 530.00 kg
总质量 575.00 kg
长度 0.30 m
直径 4.10 m
跨度 29.00 m
形状 Box + pan
制造商 SPXS
平台类型 Starlink V2MO
阶段状态 In Orbit
所有者/国家 SPXS/US

Most Searched